Flag for U.S.A. Weather past 2 weeks in Racine, Wisconsin, U.S.A.

Now
27 °F

Sunny.


Feels Like: 27 °F
Forecast: 13 / 28 °F
Wind: No wind

Location: Batten International Airport

Current Time: Mar 2, 2015 at 2:41:32 PM

Latest Report: Mar 2, 2015 at 1:53 PM


Visibility: 10 mi

Pressure: 30.49 "Hg

Humidity: 45%

Dew point: 8 °F

Location of RacineLocation

Historic Weather in Racine — Graph

°F

Racine temperature yesterday

Maximum temperature yesterday: 26 °F (at 2:53 PM)
Minimum temperature yesterday: 7 °F (at 4:53 AM)
Average temperature yesterday: 19 °F

Past Weeks' High & Low Weather Summary

 TemperatureHumidityPressure
High30 °F (Feb 24, 4:53 PM)87% (Mar 1, 5:53 AM)30.78 "Hg (Mar 1, 5:53 AM)
Low-9 °F (Feb 19, 4:53 AM)34% (Feb 24, 7:53 PM)29.65 "Hg (Feb 24, 4:53 PM)
Average12 °F61%30.27 "Hg
* Reported Feb 15 12:02 PM — Mar 2 12:53 PM, Racine, Weather by CustomWeather, © 2015

Note: Actual official high and low records may vary slightly from our data, if they occured in-between our weather recording intervals... More about our weather records

Advertising

Racine weather history for previous 24 hours

 ConditionsComfort  
Time TempWeatherWind HumidityBarometerVisibility
12:53 PM
Mon, Mar 2
28 °FSunny.No wind41%30.52 "Hg10 mi
11:53 AM25 °FSunny.5 mph48%30.54 "Hg10 mi
10:53 AM24 °FSunny.No wind52%30.54 "Hg10 mi
9:53 AM21 °FSunny.7 mph60%30.54 "Hg10 mi
8:53 AM18 °FSunny.9 mph68%30.55 "Hg10 mi
7:53 AM15 °FSunny.9 mph70%30.52 "Hg10 mi
6:53 AM13 °FSunny.8 mph74%30.49 "Hg10 mi
5:53 AM12 °FClear.9 mph73%30.48 "Hg10 mi
4:53 AM13 °FClear.7 mph70%30.47 "Hg10 mi
3:53 AM14 °FClear.7 mph71%30.45 "Hg10 mi
2:53 AM16 °FClear.5 mph65%30.43 "Hg10 mi
1:53 AM17 °FClear.6 mph62%30.42 "Hg10 mi
12:53 AM17 °FClear.9 mph62%30.40 "Hg10 mi
11:53 PM
Sun, Mar 1
19 °FClear.10 mph59%30.36 "Hg10 mi
10:53 PM20 °FClear.9 mph60%30.35 "Hg10 mi
9:53 PM21 °FClear.10 mph65%30.33 "Hg10 mi
8:53 PM21 °FClear.13 mph71%30.30 "Hg9 mi
7:53 PM21 °FClear.10 mph71%30.28 "Hg10 mi
6:53 PM22 °FPassing clouds.8 mph68%30.28 "Hg9 mi
5:53 PM23 °FClear.7 mph65%30.27 "Hg10 mi
4:53 PM25 °FSunny.13 mph60%30.27 "Hg10 mi
3:53 PM26 °FSunny.10 mph60%30.27 "Hg10 mi
2:53 PM26 °FSunny.12 mph57%30.29 "Hg10 mi
Weather by CustomWeather, © 2015

See weather overviewHow to use our weather pages